Time,TemperatureF,DewpointF,PressureIn,WindDirection,WindDirectionDegrees,WindSpeedMPH,WindSpeedGustMPH,Humidity,HourlyPrecipIn,Conditions,Clouds,dailyrainin,SoftwareType,DateUTC
2016-12-03 00:00:00,38.9,35.1,30.42,NNE,33,3.0,6.0,86,0.00,,---,0.00,VWS V14.01,2016-12-03 08:00:00,
2016-12-03 00:05:00,38.9,35.1,30.42,NNE,12,2.0,4.0,86,0.00,,---,0.00,VWS V14.01,2016-12-03 08:05:00,
2016-12-03 00:10:00,38.8,35.0,30.43,NNW,335,4.0,5.0,86,0.00,,---,0.00,VWS V14.01,2016-12-03 08:10:00,
2016-12-03 00:15:00,38.8,35.0,30.43,NNW,334,3.0,5.0,86,0.00,,---,0.00,VWS V14.01,2016-12-03 08:15:00,
2016-12-03 00:20:00,38.9,35.1,30.42,NNW,334,3.0,5.0,86,0.00,,---,0.00,VWS V14.01,2016-12-03 08:20:00,
2016-12-03 00:25:00,38.9,35.1,30.43,NW,324,4.0,5.0,86,0.00,,---,0.00,VWS V14.01,2016-12-03 08:25:00,
2016-12-03 00:30:00,38.9,35.1,30.43,NNW,333,3.0,3.0,86,0.00,,---,0.00,VWS V14.01,2016-12-03 08:30:00,
2016-12-03 00:35:00,38.9,35.4,30.43,NNW,331,3.0,3.0,87,0.00,,---,0.00,VWS V14.01,2016-12-03 08:35:00,
2016-12-03 00:40:00,39.0,35.5,30.42,NNW,330,2.0,3.0,87,0.00,,---,0.00,VWS V14.01,2016-12-03 08:40:00,
2016-12-03 00:45:00,39.0,35.2,30.43,NNW,328,2.0,3.0,86,0.00,,---,0.00,VWS V14.01,2016-12-03 08:45:00,
2016-12-03 00:50:00,39.0,35.5,30.43,NNW,329,2.0,3.0,87,0.00,,---,0.00,VWS V14.01,2016-12-03 08:50:00,
2016-12-03 00:55:00,38.9,35.4,30.43,NNW,329,3.0,3.0,87,0.00,,---,0.00,VWS V14.01,2016-12-03 08:55:00,
2016-12-03 01:00:00,38.9,35.4,30.43,NNW,328,2.0,2.0,87,0.00,,---,0.00,VWS V14.01,2016-12-03 09:00:00,
2016-12-03 01:05:00,38.7,35.5,30.43,NW,323,2.0,3.0,88,0.00,,---,0.00,VWS V14.01,2016-12-03 09:05:00,
2016-12-03 01:10:00,38.6,35.4,30.43,NW,322,2.0,3.0,88,0.00,,---,0.00,VWS V14.01,2016-12-03 09:10:00,
2016-12-03 01:15:00,38.5,35.5,30.43,NW,320,2.0,3.0,89,0.00,,---,0.00,VWS V14.01,2016-12-03 09:15:00,
2016-12-03 01:21:00,38.4,35.7,30.43,NW,321,3.0,3.0,90,0.00,,---,0.00,VWS V14.01,2016-12-03 09:21:00,
2016-12-03 01:26:00,38.4,35.7,30.43,NW,320,2.0,3.0,90,0.00,,---,0.00,VWS V14.01,2016-12-03 09:26:00,
2016-12-03 01:31:00,38.3,35.6,30.44,NW,326,3.0,3.0,90,0.00,,---,0.00,VWS V14.01,2016-12-03 09:31:00,
2016-12-03 01:36:00,38.4,35.7,30.43,NNW,328,3.0,3.0,90,0.00,,---,0.00,VWS V14.01,2016-12-03 09:36:00,
2016-12-03 01:41:00,38.4,35.5,30.43,NNW,329,2.0,3.0,89,0.00,,---,0.00,VWS V14.01,2016-12-03 09:41:00,
2016-12-03 01:46:00,38.4,35.5,30.43,NNW,329,1.0,3.0,89,0.00,,---,0.00,VWS V14.01,2016-12-03 09:46:00,
2016-12-03 01:51:00,38.5,35.5,30.43,NNW,330,2.0,3.0,89,0.00,,---,0.00,VWS V14.01,2016-12-03 09:51:00,
2016-12-03 01:56:00,38.5,35.3,30.43,NNW,330,2.0,3.0,88,0.00,,---,0.00,VWS V14.01,2016-12-03 09:56:00,
2016-12-03 02:01:00,38.6,35.4,30.43,NNW,329,2.0,2.0,88,0.00,,---,0.00,VWS V14.01,2016-12-03 10:01:00,
2016-12-03 02:06:00,38.6,35.1,30.43,NNW,328,2.0,3.0,87,0.00,,---,0.00,VWS V14.01,2016-12-03 10:06:00,
2016-12-03 02:11:00,38.7,35.2,30.43,NNW,330,3.0,4.0,87,0.00,,---,0.00,VWS V14.01,2016-12-03 10:11:00,
2016-12-03 02:16:00,38.7,35.2,30.43,NNW,330,3.0,4.0,87,0.00,,---,0.00,VWS V14.01,2016-12-03 10:16:00,
2016-12-03 02:21:00,38.8,35.3,30.43,NNW,328,1.0,4.0,87,0.00,,---,0.00,VWS V14.01,2016-12-03 10:21:00,
2016-12-03 02:26:00,38.8,35.3,30.43,NNW,329,0.0,4.0,87,0.00,,---,0.00,VWS V14.01,2016-12-03 10:26:00,
2016-12-03 02:31:00,38.9,35.7,30.43,North,359,0.0,0.0,88,0.00,,---,0.00,VWS V14.01,2016-12-03 10:31:00,
2016-12-03 02:36:00,38.9,35.7,30.43,NNW,330,0.0,0.0,88,0.00,,---,0.00,VWS V14.01,2016-12-03 10:36:00,
2016-12-03 02:41:00,38.9,35.9,30.43,NNW,328,0.0,0.0,89,0.00,,---,0.00,VWS V14.01,2016-12-03 10:41:00,
2016-12-03 02:46:00,38.8,35.6,30.43,NNW,330,0.0,0.0,88,0.00,,---,0.00,VWS V14.01,2016-12-03 10:46:00,
2016-12-03 02:51:00,38.7,35.5,30.43,NNW,330,0.0,0.0,88,0.00,,---,0.00,VWS V14.01,2016-12-03 10:51:00,